QPF
0.00 0.00 0.00 0.00 0.00 0.00 0.00 0.00 0.00 0.00 0.00 0.00 0.00 0.00 0.00 0.00 0.00 0.00 0.00 0.00 0.00 0.00 0.00 0.00 0.00 0.00 0.00 0.00 0.00 0.00 0.00 0.00 0.00 0.00 0.00 0.00 0.00 0.00 0.00 0.00 0.00 0.00 0.00 0.01 0.01 0.01 0.01 0.01 0.01 0.01 0.01 0.01 0.01 0.01 0.01 0.01 0.01 0.01 0.01 0.01 0.01 0.01 0.00 0.00 0.00 0.00 0.00 0.00 0.00
0.00 0.00 0.00 0.00 0.00 0.00 0.00 0.00 0.00 0.00 0.00 0.00 0.00 0.00 0.00 0.00 0.00 0.00 0.00 0.00 0.00 0.00 0.00 0.00 0.00 0.00 0.00 0.00 0.00 0.00 0.00 0.00 0.00 0.00 0.00 0.00 0.00 0.00 0.00 0.00 0.00 0.00 0.00 0.01 0.01 0.01 0.01 0.01 0.01 0.01 0.01 0.01 0.01 0.01 0.01 0.01 0.01 0.01 0.01 0.01 0.01 0.01 0.01 0.01 0.00 0.00 0.00 0.00 0.00
0.00 0.00 0.00 0.00 0.00 0.00 0.00 0.00 0.00 0.00 0.00 0.00 0.00 0.00 0.00 0.00 0.00 0.00 0.00 0.00 0.00 0.00 0.00 0.00 0.00 0.00 0.00 0.00 0.00 0.00 0.00 0.00 0.00 0.00 0.00 0.00 0.00 0.00 0.00 0.01 0.01 0.01 0.01 0.01 0.01 0.01 0.01 0.01 0.02 0.02 0.02 0.02 0.02 0.02 0.01 0.00 0.00 0.01 0.01 0.01 0.01 0.00 0.01 0.01 0.00 0.00 0.00 0.00 0.00
0.00 0.00 0.00 0.00 0.00 0.00 0.00 0.00 0.00 0.00 0.00 0.00 0.00 0.00 0.00 0.00 0.00 0.00 0.00 0.00 0.00 0.00 0.00 0.00 0.00 0.00 0.00 0.00 0.00 0.00 0.00 0.00 0.00 0.00 0.00 0.00 0.00 0.00 0.00 0.00 0.00 0.00 0.00 0.01 0.01 0.01 0.01 0.01 0.02 0.03 0.03 0.03 0.03 0.03 0.02 0.02 0.01 0.01 0.01 0.01 0.01 0.01 0.01 0.00 0.00 0.00 0.00 0.00 0.00
0.00 0.00 0.00 0.00 0.00 0.00 0.00 0.00 0.00 0.00 0.00 0.00 0.00 0.00 0.00 0.00 0.00 0.00 0.00 0.00 0.00 0.00 0.00 0.00 0.00 0.00 0.00 0.00 0.00 0.00 0.00 0.00 0.00 0.00 0.00 0.00 0.00 0.00 0.00 0.00 0.00 0.00 0.00 0.00 0.00 0.01 0.01 0.01 0.02 0.03 0.04 0.03 0.03 0.03 0.03 0.02 0.01 0.01 0.01 0.01 0.01 0.01 0.01 0.01 0.00 0.00 0.00 0.00 0.00
0.00 0.00 0.00 0.00 0.00 0.00 0.00 0.00 0.00 0.00 0.00 0.00 0.00 0.00 0.00 0.00 0.00 0.00 0.00 0.00 0.00 0.00 0.00 0.00 0.00 0.00 0.00 0.00 0.00 0.00 0.00 0.00 0.00 0.00 0.00 0.00 0.00 0.00 0.00 0.00 0.00 0.00 0.00 0.00 0.00 0.00 0.00 0.00 0.01 0.02 0.03 0.04 0.03 0.03 0.03 0.02 0.02 0.02 0.03 0.03 0.03 0.02 0.01 0.01 0.01 0.00 0.00 0.00 0.00
0.00 0.00 0.00 0.00 0.00 0.00 0.00 0.00 0.00 0.00 0.00 0.00 0.00 0.00 0.00 0.00 0.00 0.00 0.00 0.00 0.00 0.00 0.00 0.00 0.00 0.00 0.00 0.00 0.00 0.00 0.00 0.00 0.00 0.00 0.00 0.00 0.00 0.00 0.00 0.00 0.00 0.00 0.00 0.00 0.00 0.00 0.00 0.01 0.01 0.01 0.02 0.03 0.03 0.03 0.03 0.02 0.03 0.03 0.03 0.03 0.03 0.03 0.03 0.02 0.02 0.01 0.01 0.00 0.01
0.00 0.00 0.00 0.00 0.00 0.00 0.00 0.00 0.00 0.00 0.00 0.00 0.00 0.00 0.00 0.00 0.00 0.00 0.00 0.00 0.00 0.00 0.00 0.00 0.00 0.00 0.00 0.00 0.00 0.00 0.00 0.00 0.00 0.00 0.00 0.00 0.00 0.00 0.00 0.00 0.00 0.00 0.00 0.00 0.00 0.01 0.01 0.01 0.02 0.02 0.02 0.03 0.03 0.03 0.03 0.03 0.03 0.04 0.05 0.04 0.04 0.03 0.03 0.03 0.03 0.02 0.02 0.01 0.02
0.00 0.00 0.00 0.00 0.00 0.00 0.00 0.00 0.00 0.00 0.00 0.00 0.00 0.00 0.00 0.00 0.00 0.00 0.00 0.00 0.00 0.00 0.00 0.00 0.00 0.00 0.00 0.00 0.00 0.00 0.00 0.00 0.00 0.00 0.00 0.00 0.00 0.00 0.00 0.00 0.00 0.00 0.00 0.00 0.00 0.01 0.01 0.02 0.02 0.03 0.03 0.04 0.05 0.05 0.05 0.05 0.05 0.07 0.08 0.08 0.07 0.06 0.05 0.04 0.04 0.04 0.05 0.06 0.05
0.00 0.00 0.00 0.00 0.00 0.00 0.00 0.00 0.00 0.00 0.00 0.00 0.00 0.00 0.00 0.00 0.00 0.00 0.00 0.00 0.00 0.00 0.00 0.00 0.00 0.00 0.00 0.00 0.00 0.00 0.00 0.00 0.00 0.00 0.00 0.00 0.00 0.00 0.00 0.00 0.00 0.00 0.00 0.00 0.00 0.01 0.01 0.02 0.02 0.03 0.03 0.03 0.04 0.05 0.05 0.06 0.06 0.06 0.07 0.09 0.08 0.07 0.06 0.05 0.05 0.06 0.06 0.06 0.06
0.00 0.00 0.00 0.00 0.00 0.00 0.00 0.00 0.00 0.00 0.00 0.00 0.00 0.00 0.00 0.00 0.00 0.00 0.00 0.00 0.00 0.00 0.00 0.00 0.00 0.00 0.00 0.00 0.00 0.00 0.00 0.00 0.00 0.00 0.00 0.00 0.00 0.00 0.00 0.00 0.00 0.00 0.00 0.00 0.00 0.00 0.01 0.01 0.02 0.02 0.02 0.02 0.02 0.03 0.03 0.04 0.04 0.04 0.05 0.06 0.06 0.06 0.06 0.05 0.05 0.05 0.06 0.05 0.05
0.00 0.00 0.00 0.00 0.00 0.00 0.00 0.00 0.00 0.00 0.00 0.00 0.00 0.00 0.00 0.00 0.00 0.00 0.00 0.00 0.00 0.00 0.00 0.00 0.00 0.00 0.00 0.00 0.00 0.00 0.00 0.00 0.00 0.00 0.00 0.00 0.00 0.00 0.00 0.00 0.00 0.00 0.00 0.00 0.00 0.00 0.01 0.01 0.01 0.02 0.02 0.02 0.02 0.02 0.02 0.03 0.03 0.04 0.04 0.04 0.04 0.05 0.05 0.05 0.04 0.05 0.05 0.04 0.05
0.00 0.00 0.00 0.00 0.00 0.00 0.00 0.00 0.00 0.00 0.00 0.00 0.00 0.00 0.00 0.00 0.00 0.00 0.00 0.00 0.00 0.00 0.00 0.00 0.00 0.00 0.00 0.00 0.00 0.00 0.00 0.00 0.00 0.00 0.00 0.00 0.00 0.00 0.00 0.00 0.00 0.00 0.00 0.00 0.00 0.00 0.01 0.01 0.02 0.02 0.02 0.02 0.02 0.02 0.03 0.04 0.04 0.05 0.05 0.05 0.05 0.05 0.05 0.05 0.04 0.04 0.04 0.05 0.05
0.00 0.00 0.00 0.00 0.00 0.00 0.00 0.00 0.00 0.00 0.00 0.00 0.00 0.00 0.00 0.00 0.00 0.00 0.00 0.00 0.00 0.00 0.00 0.00 0.00 0.00 0.00 0.00 0.00 0.00 0.00 0.00 0.00 0.00 0.00 0.00 0.00 0.00 0.00 0.00 0.00 0.00 0.00 0.00 0.01 0.01 0.01 0.01 0.02 0.02 0.03 0.03 0.03 0.03 0.03 0.04 0.04 0.05 0.06 0.06 0.06 0.06 0.05 0.05 0.04 0.04 0.05 0.05 0.05
0.00 0.00 0.00 0.00 0.00 0.00 0.00 0.00 0.00 0.00 0.00 0.00 0.00 0.00 0.00 0.00 0.00 0.00 0.00 0.00 0.00 0.00 0.00 0.00 0.00 0.00 0.00 0.00 0.00 0.00 0.00 0.00 0.00 0.00 0.00 0.00 0.00 0.00 0.00 0.00 0.01 0.01 0.01 0.01 0.01 0.01 0.01 0.02 0.02 0.03 0.03 0.03 0.03 0.03 0.03 0.03 0.04 0.05 0.06 0.07 0.07 0.06 0.06 0.05 0.05 0.05 0.05 0.05 0.06
0.00 0.00 0.00 0.00 0.00 0.00 0.00 0.00 0.00 0.00 0.00 0.00 0.00 0.00 0.00 0.00 0.00 0.00 0.00 0.00 0.00 0.00 0.00 0.00 0.00 0.00 0.00 0.00 0.00 0.00 0.00 0.00 0.00 0.00 0.00 0.00 0.00 0.00 0.01 0.01 0.01 0.01 0.01 0.01 0.01 0.01 0.01 0.02 0.02 0.02 0.03 0.04 0.04 0.04 0.04 0.04 0.04 0.04 0.05 0.06 0.06 0.07 0.07 0.06 0.06 0.05 0.05 0.05 0.05
0.00 0.00 0.00 0.00 0.00 0.00 0.00 0.00 0.00 0.00 0.00 0.00 0.00 0.00 0.00 0.00 0.00 0.00 0.00 0.00 0.00 0.00 0.00 0.00 0.00 0.00 0.00 0.00 0.00 0.00 0.00 0.00 0.00 0.00 0.00 0.01 0.00 0.01 0.01 0.01 0.01 0.01 0.01 0.01 0.01 0.01 0.02 0.02 0.02 0.02 0.03 0.04 0.04 0.04 0.04 0.04 0.04 0.04 0.04 0.05 0.06 0.06 0.07 0.06 0.07 0.06 0.06 0.05 0.05
0.00 0.00 0.00 0.00 0.00 0.01 0.01 0.01 0.01 0.01 0.01 0.01 0.01 0.01 0.00 0.00 0.00 0.00 0.00 0.00 0.00 0.00 0.00 0.00 0.00 0.00 0.00 0.00 0.00 0.00 0.00 0.00 0.00 0.00 0.00 0.01 0.00 0.01 0.01 0.01 0.01 0.01 0.01 0.01 0.02 0.02 0.02 0.02 0.03 0.03 0.03 0.04 0.05 0.05 0.05 0.05 0.05 0.05 0.05 0.05 0.06 0.06 0.07 0.07 0.07 0.07 0.07 0.07 0.06
0.00 0.00 0.00 0.01 0.00 0.01 0.01 0.01 0.01 0.01 0.01 0.01 0.01 0.01 0.01 0.01 0.01 0.01 0.01 0.00 0.00 0.00 0.00 0.00 0.00 0.00 0.00 0.00 0.00 0.00 0.00 0.00 0.00 0.00 0.00 0.00 0.01 0.01 0.01 0.01 0.01 0.01 0.01 0.02 0.02 0.02 0.03 0.03 0.03 0.04 0.04 0.05 0.05 0.06 0.06 0.05 0.05 0.05 0.05 0.05 0.05 0.06 0.06 0.08 0.09 0.09 0.09 0.09 0.09
0.00 0.00 0.00 0.01 0.01 0.01 0.01 0.01 0.01 0.01 0.01 0.01 0.01 0.01 0.01 0.01 0.01 0.01 0.01 0.00 0.00 0.00 0.00 0.00 0.01 0.01 0.00 0.00 0.00 0.00 0.00 0.00 0.00 0.00 0.00 0.00 0.01 0.01 0.01 0.01 0.01 0.01 0.01 0.02 0.02 0.03 0.04 0.04 0.04 0.05 0.05 0.05 0.05 0.05 0.05 0.06 0.06 0.06 0.06 0.06 0.06 0.07 0.08 0.11 0.12 0.12 0.12 0.13 0.13
0.00 0.00 0.00 0.01 0.01 0.01 0.01 0.01 0.01 0.01 0.01 0.01 0.01 0.01 0.01 0.01 0.01 0.01 0.01 0.00 0.00 0.00 0.01 0.01 0.01 0.01 0.01 0.00 0.00 0.00 0.00 0.00 0.00 0.00 0.00 0.00 0.00 0.01 0.01 0.01 0.01 0.01 0.02 0.02 0.03 0.03 0.04 0.04 0.05 0.05 0.05 0.06 0.06 0.07 0.08 0.09 0.10 0.11 0.11 0.11 0.11 0.11 0.10 0.09 0.09 0.09 0.10 0.11 0.12
0.00 0.00 0.00 0.01 0.01 0.01 0.01 0.01 0.01 0.01 0.01 0.01 0.01 0.01 0.01 0.01 0.01 0.01 0.01 0.01 0.01 0.01 0.01 0.01 0.01 0.01 0.01 0.00 0.00 0.00 0.00 0.00 0.00 0.00 0.00 0.00 0.00 0.01 0.01 0.01 0.01 0.02 0.02 0.03 0.03 0.03 0.03 0.04 0.04 0.05 0.06 0.09 0.10 0.10 0.11 0.11 0.11 0.10 0.09 0.08 0.08 0.08 0.07 0.05 0.05 0.06 0.06 0.07 0.09
0.00 0.00 0.01 0.01 0.01 0.01 0.01 0.01 0.01 0.01 0.01 0.01 0.01 0.01 0.01 0.01 0.01 0.01 0.01 0.01 0.01 0.01 0.01 0.01 0.01 0.01 0.01 0.00 0.00 0.00 0.00 0.00 0.00 0.00 0.00 0.00 0.00 0.00 0.01 0.01 0.02 0.02 0.02 0.02 0.03 0.03 0.03 0.04 0.05 0.06 0.07 0.09 0.08 0.08 0.07 0.06 0.06 0.05 0.05 0.04 0.04 0.03 0.03 0.03 0.03 0.04 0.05 0.05 0.06
0.00 0.01 0.01 0.01 0.01 0.01 0.01 0.01 0.01 0.01 0.01 0.01 0.01 0.01 0.01 0.01 0.01 0.01 0.01 0.01 0.01 0.01 0.01 0.01 0.01 0.01 0.01 0.00 0.01 0.01 0.00 0.01 0.01 0.01 0.01 0.00 0.00 0.00 0.01 0.01 0.01 0.02 0.02 0.02 0.03 0.03 0.04 0.05 0.07 0.06 0.05 0.05 0.05 0.04 0.04 0.03 0.03 0.03 0.03 0.03 0.02 0.02 0.02 0.02 0.02 0.03 0.03 0.04 0.04
0.01 0.01 0.01 0.01 0.01 0.01 0.01 0.01 0.01 0.01 0.01 0.01 0.01 0.01 0.01 0.01 0.01 0.01 0.01 0.01 0.01 0.01 0.01 0.01 0.01 0.01 0.01 0.01 0.01 0.00 0.00 0.00 0.01 0.00 0.01 0.01 0.00 0.00 0.00 0.01 0.01 0.01 0.02 0.02 0.02 0.02 0.03 0.04 0.05 0.05 0.04 0.04 0.03 0.03 0.03 0.03 0.03 0.03 0.03 0.03 0.03 0.03 0.02 0.02 0.02 0.02 0.02 0.03 0.03
0.01 0.01 0.01 0.01 0.01 0.01 0.01 0.01 0.01 0.01 0.01 0.01 0.01 0.01 0.01 0.01 0.01 0.01 0.01 0.01 0.01 0.01 0.01 0.01 0.01 0.01 0.01 0.01 0.00 0.00 0.00 0.00 0.00 0.00 0.00 0.00 0.00 0.00 0.00 0.00 0.01 0.01 0.01 0.01 0.02 0.02 0.02 0.02 0.02 0.02 0.02 0.03 0.03 0.04 0.04 0.04 0.04 0.04 0.04 0.04 0.04 0.04 0.03 0.02 0.02 0.02 0.01 0.02 0.02
0.01 0.01 0.01 0.01 0.01 0.01 0.01 0.01 0.01 0.01 0.01 0.01 0.01 0.01 0.01 0.01 0.01 0.01 0.01 0.01 0.01 0.01 0.01 0.01 0.01 0.01 0.00 0.00 0.00 0.00 0.00 0.00 0.00 0.00 0.00 0.00 0.00 0.00 0.00 0.00 0.00 0.01 0.01 0.01 0.01 0.01 0.01 0.01 0.01 0.01 0.01 0.02 0.03 0.04 0.05 0.05 0.04 0.04 0.04 0.04 0.04 0.04 0.04 0.04 0.02 0.02 0.02 0.01 0.01
0.01 0.01 0.01 0.01 0.01 0.01 0.01 0.01 0.01 0.01 0.01 0.01 0.01 0.01 0.01 0.01 0.01 0.01 0.01 0.01 0.01 0.01 0.01 0.00 0.00 0.00 0.00 0.00 0.00 0.00 0.00 0.00 0.00 0.00 0.00 0.00 0.00 0.00 0.00 0.00 0.00 0.00 0.01 0.01 0.01 0.01 0.01 0.01 0.01 0.01 0.01 0.02 0.02 0.04 0.05 0.06 0.05 0.05 0.05 0.05 0.04 0.04 0.04 0.04 0.03 0.03 0.02 0.02 0.01
0.01 0.01 0.01 0.01 0.01 0.01 0.01 0.01 0.01 0.01 0.01 0.01 0.01 0.01 0.01 0.01 0.01 0.01 0.01 0.01 0.01 0.00 0.00 0.00 0.00 0.00 0.00 0.00 0.00 0.00 0.00 0.00 0.00 0.00 0.00 0.00 0.00 0.00 0.00 0.00 0.00 0.00 0.00 0.00 0.00 0.01 0.01 0.01 0.01 0.01 0.01 0.01 0.02 0.03 0.04 0.06 0.06 0.06 0.05 0.05 0.05 0.04 0.04 0.04 0.04 0.03 0.03 0.03 0.02
0.01 0.01 0.01 0.01 0.01 0.01 0.01 0.01 0.01 0.01 0.01 0.01 0.01 0.01 0.01 0.01 0.01 0.01 0.01 0.01 0.00 0.00 0.00 0.00 0.00 0.00 0.00 0.00 0.00 0.00 0.00 0.00 0.00 0.00 0.00 0.00 0.00 0.00 0.00 0.00 0.00 0.00 0.00 0.00 0.00 0.00 0.01 0.01 0.01 0.01 0.01 0.01 0.02 0.03 0.04 0.04 0.06 0.06 0.06 0.05 0.05 0.05 0.05 0.04 0.04 0.04 0.04 0.03 0.03
0.01 0.01 0.01 0.01 0.01 0.01 0.01 0.01 0.01 0.01 0.01 0.01 0.01 0.01 0.01 0.01 0.01 0.01 0.01 0.00 0.00 0.00 0.00 0.00 0.00 0.00 0.00 0.00 0.00 0.00 0.00 0.00 0.00 0.00 0.00 0.00 0.00 0.00 0.00 0.00 0.00 0.00 0.00 0.00 0.00 0.00 0.00 0.01 0.01 0.01 0.01 0.01 0.01 0.02 0.03 0.04 0.04 0.05 0.06 0.05 0.05 0.05 0.05 0.05 0.04 0.04 0.04 0.04 0.04
0.01 0.01 0.01 0.01 0.01 0.01 0.01 0.01 0.01 0.01 0.01 0.01 0.01 0.01 0.01 0.01 0.01 0.00 0.00 0.00 0.00 0.00 0.00 0.00 0.00 0.00 0.00 0.00 0.00 0.00 0.00 0.00 0.00 0.00 0.00 0.00 0.00 0.00 0.00 0.00 0.00 0.00 0.00 0.00 0.00 0.00 0.00 0.00 0.00 0.01 0.01 0.01 0.01 0.02 0.03 0.03 0.04 0.04 0.04 0.03 0.04 0.04 0.04 0.05 0.05 0.05 0.05 0.05 0.06
0.01 0.01 0.01 0.01 0.01 0.01 0.01 0.01 0.01 0.01 0.01 0.01 0.01 0.01 0.01 0.01 0.00 0.00 0.00 0.00 0.00 0.00 0.00 0.00 0.00 0.00 0.00 0.00 0.00 0.00 0.00 0.00 0.00 0.00 0.00 0.00 0.00 0.00 0.00 0.00 0.00 0.00 0.00 0.00 0.00 0.00 0.00 0.00 0.00 0.00 0.00 0.01 0.01 0.01 0.02 0.02 0.03 0.03 0.03 0.03 0.03 0.03 0.04 0.05 0.05 0.05 0.06 0.06 0.07
0.01 0.01 0.01 0.01 0.01 0.01 0.01 0.01 0.01 0.01 0.01 0.01 0.01 0.01 0.01 0.00 0.00 0.00 0.00 0.00 0.00 0.00 0.00 0.00 0.00 0.00 0.00 0.00 0.00 0.00 0.00 0.00 0.00 0.00 0.00 0.00 0.00 0.00 0.00 0.00 0.00 0.00 0.00 0.00 0.00 0.00 0.00 0.00 0.00 0.00 0.00 0.00 0.01 0.01 0.02 0.02 0.02 0.03 0.03 0.03 0.03 0.03 0.03 0.04 0.05 0.05 0.06 0.06 0.06
0.01 0.01 0.01 0.01 0.01 0.01 0.01 0.01 0.01 0.01 0.01 0.01 0.01 0.01 0.00 0.00 0.00 0.00 0.00 0.00 0.00 0.00 0.00 0.00 0.00 0.00 0.00 0.00 0.00 0.00 0.00 0.00 0.00 0.00 0.00 0.00 0.00 0.00 0.00 0.00 0.00 0.00 0.00 0.00 0.00 0.00 0.00 0.00 0.00 0.00 0.00 0.00 0.01 0.01 0.02 0.02 0.02 0.03 0.03 0.03 0.03 0.03 0.02 0.03 0.03 0.04 0.05 0.05 0.05
0.01 0.01 0.01 0.01 0.01 0.01 0.01 0.01 0.01 0.01 0.01 0.01 0.01 0.00 0.00 0.00 0.00 0.00 0.00 0.00 0.00 0.00 0.00 0.00 0.00 0.00 0.00 0.00 0.00 0.00 0.00 0.00 0.00 0.00 0.00 0.00 0.00 0.00 0.00 0.00 0.00 0.00 0.00 0.00 0.00 0.00 0.00 0.00 0.00 0.00 0.00 0.00 0.01 0.01 0.02 0.02 0.02 0.02 0.03 0.03 0.03 0.02 0.02 0.02 0.02 0.03 0.03 0.03 0.04
0.01 0.01 0.01 0.01 0.01 0.01 0.01 0.01 0.01 0.01 0.01 0.01 0.01 0.00 0.00 0.00 0.00 0.00 0.00 0.00 0.00 0.00 0.00 0.00 0.00 0.00 0.00 0.00 0.00 0.00 0.00 0.00 0.00 0.00 0.00 0.00 0.00 0.00 0.00 0.00 0.00 0.00 0.00 0.00 0.00 0.00 0.00 0.00 0.00 0.00 0.00 0.00 0.00 0.01 0.02 0.02 0.02 0.02 0.02 0.03 0.02 0.02 0.02 0.02 0.02 0.02 0.02 0.02 0.02
0.01 0.01 0.01 0.00 0.00 0.00 0.00 0.01 0.01 0.01 0.01 0.01 0.00 0.00 0.00 0.00 0.00 0.00 0.00 0.00 0.00 0.00 0.00 0.00 0.00 0.00 0.00 0.00 0.00 0.00 0.00 0.00 0.00 0.00 0.00 0.00 0.00 0.00 0.00 0.00 0.00 0.00 0.00 0.00 0.00 0.00 0.00 0.00 0.00 0.00 0.00 0.00 0.00 0.01 0.01 0.02 0.02 0.02 0.02 0.02 0.02 0.02 0.02 0.02 0.02 0.02 0.02 0.02 0.02
0.00 0.00 0.00 0.00 0.00 0.00 0.00 0.00 0.01 0.01 0.00 0.00 0.00 0.00 0.00 0.00 0.00 0.00 0.00 0.00 0.00 0.00 0.00 0.00 0.00 0.00 0.00 0.00 0.00 0.00 0.00 0.00 0.00 0.00 0.00 0.00 0.00 0.00 0.00 0.00 0.00 0.00 0.00 0.00 0.00 0.00 0.00 0.00 0.00 0.00 0.00 0.00 0.00 0.01 0.01 0.01 0.01 0.02 0.02 0.02 0.02 0.02 0.01 0.01 0.01 0.02 0.02 0.02 0.02
0.00 0.00 0.00 0.00 0.00 0.00 0.00 0.00 0.00 0.00 0.00 0.00 0.00 0.00 0.00 0.00 0.00 0.00 0.00 0.00 0.00 0.00 0.00 0.00 0.00 0.00 0.00 0.00 0.00 0.00 0.00 0.00 0.00 0.00 0.00 0.00 0.00 0.00 0.00 0.00 0.00 0.00 0.00 0.00 0.00 0.00 0.00 0.00 0.00 0.00 0.00 0.00 0.00 0.00 0.00 0.01 0.01 0.01 0.02 0.02 0.02 0.02 0.01 0.01 0.02 0.02 0.02 0.02 0.02
0.00 0.00 0.00 0.00 0.00 0.00 0.00 0.00 0.00 0.00 0.00 0.00 0.00 0.00 0.00 0.00 0.00 0.00 0.00 0.00 0.00 0.00 0.00 0.00 0.00 0.00 0.00 0.00 0.00 0.00 0.00 0.00 0.00 0.00 0.00 0.00 0.00 0.00 0.00 0.00 0.00 0.00 0.00 0.00 0.00 0.00 0.00 0.00 0.00 0.00 0.00 0.00 0.00 0.00 0.00 0.01 0.01 0.01 0.01 0.01 0.01 0.02 0.02 0.02 0.02 0.02 0.02 0.02 0.02
MSLP
1019.40 1019.40 1019.52 1019.56 1019.60 1019.56 1019.56 1019.60 1019.64 1019.64 1019.64 1019.60 1019.60 1019.60 1019.60 1019.60 1019.60 1019.60 1019.60 1019.56 1019.56 1019.52 1019.48 1019.48 1019.48 1019.44 1019.44 1019.48 1019.48 1019.48 1019.48 1019.44 1019.44 1019.40 1019.40 1019.36 1019.28 1019.24 1019.16 1019.12 1019.04 1018.96 1018.84 1018.68 1018.56 1018.40 1018.28 1018.12 1018.00 1017.84 1017.68 1017.52 1017.32 1017.16 1017.04 1016.96 1016.84 1016.68 1016.56 1016.40 1016.16 1015.96 1015.80 1015.64 1015.48 1015.32 1015.12 1014.96 1014.72
1019.48 1019.52 1019.56 1019.64 1019.68 1019.68 1019.68 1019.68 1019.72 1019.76 1019.80 1019.80 1019.80 1019.80 1019.80 1019.76 1019.72 1019.72 1019.68 1019.68 1019.68 1019.64 1019.64 1019.56 1019.56 1019.56 1019.56 1019.56 1019.56 1019.56 1019.56 1019.52 1019.44 1019.40 1019.36 1019.32 1019.28 1019.20 1019.12 1019.12 1019.00 1018.92 1018.84 1018.68 1018.56 1018.44 1018.28 1018.12 1017.96 1017.80 1017.60 1017.48 1017.32 1017.20 1017.08 1016.96 1016.88 1016.80 1016.64 1016.48 1016.28 1016.08 1015.84 1015.64 1015.44 1015.32 1015.20 1015.04 1014.84
1019.56 1019.60 1019.68 1019.68 1019.76 1019.84 1019.84 1019.84 1019.84 1019.92 1019.96 1019.96 1019.96 1019.96 1019.92 1019.88 1019.84 1019.84 1019.80 1019.76 1019.76 1019.72 1019.68 1019.64 1019.64 1019.60 1019.56 1019.60 1019.60 1019.60 1019.56 1019.52 1019.40 1019.36 1019.28 1019.28 1019.24 1019.16 1019.12 1019.08 1019.00 1018.88 1018.80 1018.68 1018.56 1018.44 1018.28 1018.12 1017.96 1017.80 1017.56 1017.40 1017.28 1017.16 1017.08 1017.00 1016.92 1016.84 1016.68 1016.56 1016.40 1016.20 1015.92 1015.60 1015.40 1015.24 1015.12 1014.96 1014.80
1019.68 1019.72 1019.80 1019.84 1019.92 1019.96 1019.96 1019.96 1020.00 1020.04 1020.04 1020.04 1020.08 1020.04 1019.96 1019.96 1019.92 1019.88 1019.84 1019.84 1019.84 1019.80 1019.72 1019.68 1019.64 1019.64 1019.60 1019.60 1019.56 1019.56 1019.48 1019.44 1019.40 1019.36 1019.28 1019.28 1019.24 1019.20 1019.12 1019.08 1019.00 1018.88 1018.80 1018.68 1018.60 1018.48 1018.32 1018.20 1018.04 1017.84 1017.56 1017.40 1017.28 1017.12 1017.00 1016.92 1016.84 1016.76 1016.64 1016.56 1016.44 1016.28 1016.04 1015.72 1015.48 1015.28 1015.04 1014.84 1014.68
1019.72 1019.80 1019.88 1019.96 1020.04 1020.08 1020.12 1020.12 1020.12 1020.16 1020.16 1020.16 1020.08 1020.04 1019.96 1019.96 1019.96 1019.92 1019.92 1019.92 1019.84 1019.84 1019.76 1019.72 1019.68 1019.64 1019.60 1019.60 1019.52 1019.48 1019.40 1019.40 1019.40 1019.36 1019.32 1019.28 1019.24 1019.20 1019.12 1019.08 1019.00 1018.88 1018.84 1018.72 1018.60 1018.48 1018.32 1018.24 1018.08 1017.84 1017.68 1017.48 1017.32 1017.12 1016.92 1016.84 1016.76 1016.68 1016.56 1016.48 1016.40 1016.28 1016.12 1015.96 1015.68 1015.40 1015.12 1014.84 1014.64
1019.84 1019.96 1020.00 1020.12 1020.16 1020.20 1020.24 1020.24 1020.24 1020.28 1020.24 1020.20 1020.12 1020.00 1019.96 1019.96 1019.96 1019.96 1019.96 1019.96 1019.88 1019.84 1019.76 1019.72 1019.68 1019.64 1019.56 1019.56 1019.48 1019.44 1019.40 1019.40 1019.40 1019.36 1019.32 1019.28 1019.20 1019.16 1019.12 1019.04 1018.96 1018.88 1018.84 1018.72 1018.60 1018.48 1018.40 1018.28 1018.04 1017.84 1017.68 1017.60 1017.36 1017.16 1017.04 1016.96 1016.80 1016.68 1016.52 1016.40 1016.28 1016.24 1016.12 1016.00 1015.84 1015.56 1015.28 1015.00 1014.68
1020.00 1020.08 1020.12 1020.24 1020.28 1020.28 1020.28 1020.28 1020.32 1020.28 1020.28 1020.20 1020.08 1020.00 1019.96 1019.96 1019.96 1019.96 1019.96 1019.96 1019.84 1019.80 1019.72 1019.68 1019.68 1019.64 1019.56 1019.56 1019.52 1019.52 1019.48 1019.44 1019.40 1019.36 1019.28 1019.28 1019.16 1019.12 1019.08 1019.04 1019.00 1018.92 1018.84 1018.76 1018.64 1018.52 1018.40 1018.28 1018.08 1017.84 1017.68 1017.60 1017.40 1017.28 1017.12 1017.08 1016.92 1016.80 1016.60 1016.40 1016.24 1016.12 1016.00 1015.84 1015.76 1015.60 1015.32 1015.00 1014.68
1020.20 1020.20 1020.24 1020.28 1020.32 1020.32 1020.32 1020.36 1020.36 1020.32 1020.28 1020.16 1020.12 1020.08 1020.04 1020.00 1019.96 1019.96 1019.92 1019.84 1019.80 1019.72 1019.68 1019.68 1019.68 1019.68 1019.68 1019.64 1019.56 1019.56 1019.48 1019.40 1019.36 1019.28 1019.28 1019.24 1019.12 1019.12 1019.08 1019.04 1018.96 1018.92 1018.84 1018.80 1018.68 1018.56 1018.40 1018.32 1018.12 1017.88 1017.68 1017.56 1017.40 1017.28 1017.16 1017.12 1017.00 1016.84 1016.68 1016.52 1016.36 1016.16 1015.96 1015.80 1015.68 1015.52 1015.32 1015.04 1014.76
1020.28 1020.28 1020.32 1020.36 1020.36 1020.36 1020.36 1020.40 1020.36 1020.32 1020.28 1020.20 1020.20 1020.16 1020.12 1020.08 1020.00 1019.96 1019.88 1019.84 1019.76 1019.72 1019.68 1019.68 1019.68 1019.68 1019.68 1019.64 1019.56 1019.52 1019.48 1019.40 1019.32 1019.28 1019.20 1019.16 1019.12 1019.04 1019.00 1019.00 1018.92 1018.84 1018.80 1018.72 1018.64 1018.52 1018.40 1018.28 1018.12 1017.88 1017.68 1017.56 1017.40 1017.28 1017.12 1017.12 1017.00 1016.84 1016.64 1016.56 1016.40 1016.28 1016.12 1015.92 1015.68 1015.52 1015.32 1015.12 1014.84
1020.28 1020.36 1020.40 1020.40 1020.40 1020.40 1020.40 1020.40 1020.36 1020.32 1020.28 1020.24 1020.24 1020.24 1020.16 1020.12 1020.00 1019.96 1019.88 1019.84 1019.80 1019.76 1019.76 1019.72 1019.72 1019.68 1019.64 1019.56 1019.52 1019.44 1019.40 1019.36 1019.28 1019.24 1019.16 1019.12 1019.08 1019.00 1018.96 1018.88 1018.84 1018.76 1018.68 1018.64 1018.56 1018.44 1018.32 1018.20 1018.00 1017.84 1017.72 1017.60 1017.44 1017.28 1017.20 1017.08 1016.96 1016.80 1016.64 1016.48 1016.36 1016.20 1016.04 1015.88 1015.72 1015.56 1015.32 1015.12 1014.88
1020.28 1020.36 1020.40 1020.44 1020.48 1020.48 1020.44 1020.40 1020.36 1020.36 1020.32 1020.28 1020.28 1020.28 1020.20 1020.08 1020.00 1019.96 1019.92 1019.92 1019.84 1019.84 1019.76 1019.72 1019.68 1019.68 1019.60 1019.56 1019.48 1019.40 1019.40 1019.32 1019.28 1019.20 1019.12 1019.08 1019.00 1018.96 1018.84 1018.80 1018.76 1018.68 1018.56 1018.52 1018.48 1018.40 1018.24 1018.12 1017.96 1017.80 1017.68 1017.56 1017.40 1017.28 1017.12 1017.00 1016.84 1016.72 1016.56 1016.40 1016.28 1016.12 1015.92 1015.76 1015.60 1015.44 1015.28 1015.08 1014.84
1020.28 1020.36 1020.40 1020.40 1020.44 1020.48 1020.44 1020.40 1020.40 1020.40 1020.36 1020.28 1020.28 1020.24 1020.12 1020.08 1020.00 1019.96 1019.96 1019.96 1019.84 1019.80 1019.72 1019.72 1019.68 1019.68 1019.60 1019.56 1019.44 1019.40 1019.32 1019.28 1019.24 1019.16 1019.08 1019.00 1018.96 1018.88 1018.80 1018.72 1018.64 1018.56 1018.48 1018.44 1018.36 1018.24 1018.12 1017.96 1017.84 1017.68 1017.56 1017.48 1017.36 1017.24 1017.04 1016.88 1016.72 1016.56 1016.40 1016.24 1016.12 1015.96 1015.84 1015.64 1015.52 1015.36 1015.16 1014.96 1014.72
1020.28 1020.36 1020.40 1020.40 1020.44 1020.48 1020.44 1020.44 1020.40 1020.40 1020.32 1020.28 1020.28 1020.20 1020.12 1020.12 1020.08 1020.00 1019.96 1019.96 1019.88 1019.84 1019.80 1019.76 1019.68 1019.64 1019.56 1019.48 1019.40 1019.36 1019.28 1019.20 1019.16 1019.12 1019.00 1018.92 1018.88 1018.80 1018.68 1018.60 1018.52 1018.44 1018.40 1018.28 1018.24 1018.12 1017.96 1017.84 1017.68 1017.56 1017.44 1017.36 1017.28 1017.12 1017.00 1016.84 1016.68 1016.48 1016.28 1016.12 1015.96 1015.84 1015.68 1015.56 1015.40 1015.28 1015.08 1014.88 1014.68
1020.28 1020.32 1020.36 1020.36 1020.40 1020.40 1020.40 1020.40 1020.36 1020.32 1020.28 1020.28 1020.24 1020.16 1020.12 1020.12 1020.12 1020.04 1019.96 1019.96 1019.88 1019.84 1019.80 1019.72 1019.68 1019.64 1019.56 1019.44 1019.40 1019.28 1019.24 1019.16 1019.12 1019.00 1018.96 1018.84 1018.80 1018.68 1018.60 1018.52 1018.40 1018.36 1018.28 1018.20 1018.12 1018.00 1017.88 1017.72 1017.60 1017.48 1017.40 1017.28 1017.12 1017.04 1016.96 1016.84 1016.64 1016.44 1016.28 1016.08 1015.88 1015.72 1015.60 1015.48 1015.32 1015.16 1015.00 1014.80 1014.56
1020.24 1020.28 1020.28 1020.32 1020.36 1020.36 1020.32 1020.28 1020.28 1020.28 1020.28 1020.28 1020.20 1020.16 1020.16 1020.12 1020.12 1020.08 1020.00 1019.96 1019.92 1019.88 1019.84 1019.72 1019.64 1019.56 1019.48 1019.40 1019.32 1019.24 1019.16 1019.12 1019.00 1018.96 1018.84 1018.72 1018.68 1018.60 1018.52 1018.40 1018.32 1018.24 1018.16 1018.08 1018.00 1017.92 1017.80 1017.68 1017.56 1017.40 1017.28 1017.12 1017.00 1016.92 1016.84 1016.68 1016.56 1016.40 1016.24 1016.04 1015.84 1015.68 1015.56 1015.36 1015.24 1015.08 1014.88 1014.68 1014.48
1020.12 1020.20 1020.28 1020.28 1020.28 1020.28 1020.28 1020.28 1020.28 1020.28 1020.28 1020.24 1020.20 1020.20 1020.16 1020.16 1020.12 1020.12 1020.08 1020.00 1019.96 1019.88 1019.84 1019.72 1019.64 1019.56 1019.44 1019.36 1019.28 1019.20 1019.12 1019.00 1018.92 1018.84 1018.72 1018.64 1018.56 1018.48 1018.40 1018.28 1018.24 1018.12 1018.04 1017.96 1017.88 1017.80 1017.72 1017.64 1017.48 1017.36 1017.20 1017.04 1016.88 1016.76 1016.64 1016.56 1016.40 1016.28 1016.12 1015.96 1015.80 1015.60 1015.40 1015.20 1015.08 1014.88 1014.72 1014.56 1014.40
1020.08 1020.16 1020.20 1020.24 1020.24 1020.24 1020.28 1020.28 1020.28 1020.28 1020.28 1020.24 1020.24 1020.20 1020.16 1020.16 1020.12 1020.12 1020.08 1020.04 1019.96 1019.84 1019.76 1019.68 1019.60 1019.52 1019.40 1019.28 1019.20 1019.12 1019.00 1018.92 1018.84 1018.72 1018.64 1018.52 1018.40 1018.36 1018.28 1018.20 1018.12 1018.04 1017.96 1017.84 1017.76 1017.68 1017.60 1017.48 1017.40 1017.28 1017.08 1016.92 1016.76 1016.60 1016.48 1016.36 1016.24 1016.12 1015.96 1015.84 1015.68 1015.44 1015.28 1015.08 1014.88 1014.72 1014.56 1014.40 1014.24
1020.08 1020.12 1020.16 1020.24 1020.24 1020.28 1020.28 1020.28 1020.28 1020.28 1020.28 1020.28 1020.24 1020.20 1020.20 1020.16 1020.12 1020.12 1020.08 1020.00 1019.96 1019.84 1019.68 1019.60 1019.56 1019.48 1019.36 1019.24 1019.12 1019.08 1018.96 1018.84 1018.72 1018.64 1018.52 1018.40 1018.36 1018.28 1018.16 1018.12 1018.04 1017.96 1017.84 1017.76 1017.68 1017.56 1017.44 1017.32 1017.24 1017.12 1017.00 1016.84 1016.68 1016.48 1016.32 1016.20 1016.12 1015.96 1015.84 1015.68 1015.56 1015.32 1015.12 1014.96 1014.76 1014.60 1014.48 1014.32 1014.12
1020.12 1020.16 1020.16 1020.24 1020.24 1020.28 1020.28 1020.28 1020.28 1020.28 1020.28 1020.28 1020.24 1020.20 1020.20 1020.16 1020.12 1020.12 1020.00 1019.96 1019.88 1019.80 1019.68 1019.60 1019.48 1019.40 1019.28 1019.20 1019.12 1019.00 1018.84 1018.72 1018.60 1018.52 1018.40 1018.28 1018.24 1018.16 1018.08 1018.00 1017.92 1017.84 1017.72 1017.64 1017.56 1017.44 1017.32 1017.24 1017.12 1017.00 1016.84 1016.68 1016.56 1016.40 1016.24 1016.08 1015.96 1015.80 1015.68 1015.52 1015.36 1015.16 1014.96 1014.76 1014.60 1014.40 1014.28 1014.12 1014.00
1020.12 1020.16 1020.20 1020.24 1020.28 1020.28 1020.28 1020.32 1020.28 1020.28 1020.28 1020.28 1020.24 1020.16 1020.16 1020.12 1020.12 1020.04 1019.96 1019.88 1019.84 1019.76 1019.68 1019.56 1019.44 1019.36 1019.24 1019.12 1019.00 1018.88 1018.76 1018.64 1018.52 1018.40 1018.28 1018.20 1018.12 1018.00 1017.96 1017.84 1017.76 1017.68 1017.60 1017.48 1017.40 1017.28 1017.20 1017.12 1017.00 1016.88 1016.76 1016.56 1016.40 1016.28 1016.12 1015.92 1015.76 1015.60 1015.48 1015.36 1015.24 1015.12 1014.92 1014.72 1014.56 1014.40 1014.24 1014.08 1013.92
1020.16 1020.20 1020.28 1020.28 1020.28 1020.28 1020.28 1020.32 1020.28 1020.28 1020.28 1020.24 1020.20 1020.16 1020.12 1020.08 1020.00 1019.96 1019.92 1019.84 1019.80 1019.68 1019.64 1019.56 1019.44 1019.32 1019.16 1019.04 1018.88 1018.80 1018.68 1018.56 1018.44 1018.36 1018.24 1018.12 1017.96 1017.88 1017.80 1017.68 1017.60 1017.56 1017.48 1017.40 1017.28 1017.16 1017.08 1017.00 1016.88 1016.76 1016.60 1016.44 1016.28 1016.12 1015.96 1015.84 1015.68 1015.56 1015.44 1015.36 1015.28 1015.12 1015.00 1014.84 1014.68 1014.52 1014.32 1014.12 1013.96
1020.20 1020.24 1020.28 1020.28 1020.32 1020.32 1020.32 1020.28 1020.28 1020.28 1020.28 1020.20 1020.16 1020.12 1020.12 1020.04 1019.96 1019.88 1019.84 1019.80 1019.72 1019.68 1019.60 1019.52 1019.40 1019.24 1019.12 1018.96 1018.84 1018.68 1018.60 1018.48 1018.36 1018.28 1018.12 1017.96 1017.84 1017.72 1017.64 1017.56 1017.48 1017.40 1017.32 1017.24 1017.12 1017.04 1016.92 1016.84 1016.68 1016.60 1016.48 1016.32 1016.16 1016.04 1015.96 1015.84 1015.72 1015.60 1015.44 1015.32 1015.24 1015.12 1014.96 1014.84 1014.68 1014.48 1014.28 1014.12 1013.92
1020.20 1020.28 1020.28 1020.28 1020.28 1020.28 1020.28 1020.28 1020.28 1020.24 1020.20 1020.12 1020.12 1020.08 1020.04 1019.96 1019.92 1019.84 1019.84 1019.80 1019.72 1019.64 1019.56 1019.44 1019.32 1019.16 1019.00 1018.88 1018.72 1018.56 1018.44 1018.28 1018.20 1018.08 1017.96 1017.84 1017.68 1017.56 1017.48 1017.40 1017.32 1017.24 1017.12 1017.04 1016.96 1016.84 1016.76 1016.68 1016.56 1016.48 1016.40 1016.28 1016.16 1016.04 1015.96 1015.84 1015.72 1015.56 1015.40 1015.28 1015.12 1015.00 1014.84 1014.68 1014.52 1014.36 1014.16 1013.96 1013.84
1020.20 1020.28 1020.28 1020.28 1020.28 1020.28 1020.28 1020.24 1020.20 1020.16 1020.12 1020.08 1020.04 1020.04 1019.96 1019.92 1019.84 1019.80 1019.80 1019.72 1019.64 1019.56 1019.44 1019.32 1019.20 1019.08 1018.92 1018.76 1018.60 1018.40 1018.28 1018.12 1017.96 1017.84 1017.68 1017.60 1017.48 1017.40 1017.28 1017.20 1017.12 1017.04 1016.96 1016.84 1016.76 1016.68 1016.60 1016.56 1016.48 1016.40 1016.32 1016.28 1016.16 1016.08 1015.96 1015.84 1015.68 1015.56 1015.36 1015.16 1015.00 1014.84 1014.64 1014.52 1014.36 1014.24 1014.08 1013.88 1013.68
1020.24 1020.24 1020.28 1020.24 1020.24 1020.24 1020.20 1020.16 1020.12 1020.08 1020.08 1020.08 1020.04 1020.00 1019.96 1019.88 1019.80 1019.76 1019.68 1019.60 1019.52 1019.44 1019.32 1019.16 1019.08 1018.92 1018.76 1018.60 1018.40 1018.28 1018.08 1017.92 1017.76 1017.60 1017.44 1017.32 1017.24 1017.16 1017.08 1017.00 1016.92 1016.84 1016.68 1016.60 1016.52 1016.48 1016.44 1016.44 1016.40 1016.36 1016.28 1016.20 1016.12 1015.96 1015.80 1015.68 1015.56 1015.40 1015.24 1015.04 1014.84 1014.68 1014.48 1014.28 1014.12 1014.04 1013.88 1013.68 1013.52
1020.24 1020.24 1020.24 1020.24 1020.20 1020.16 1020.16 1020.12 1020.12 1020.12 1020.08 1020.04 1020.00 1019.96 1019.92 1019.84 1019.76 1019.68 1019.60 1019.48 1019.36 1019.28 1019.16 1019.00 1018.88 1018.72 1018.56 1018.40 1018.20 1018.00 1017.84 1017.68 1017.52 1017.36 1017.20 1017.12 1017.00 1016.88 1016.80 1016.68 1016.60 1016.52 1016.40 1016.40 1016.32 1016.32 1016.32 1016.32 1016.28 1016.28 1016.24 1016.12 1015.96 1015.84 1015.68 1015.52 1015.40 1015.28 1015.12 1014.92 1014.76 1014.56 1014.36 1014.12 1013.92 1013.80 1013.64 1013.48 1013.28
1020.20 1020.20 1020.20 1020.20 1020.16 1020.12 1020.12 1020.12 1020.12 1020.12 1020.08 1020.04 1019.96 1019.92 1019.84 1019.80 1019.72 1019.60 1019.52 1019.40 1019.28 1019.12 1019.00 1018.84 1018.68 1018.48 1018.28 1018.08 1017.88 1017.72 1017.60 1017.40 1017.28 1017.12 1017.00 1016.84 1016.76 1016.68 1016.56 1016.40 1016.36 1016.28 1016.24 1016.20 1016.20 1016.20 1016.24 1016.20 1016.16 1016.12 1016.12 1016.00 1015.88 1015.72 1015.56 1015.40 1015.24 1015.12 1014.96 1014.80 1014.60 1014.40 1014.24 1014.00 1013.80 1013.60 1013.40 1013.24 1013.08
1020.16 1020.20 1020.16 1020.16 1020.16 1020.12 1020.12 1020.12 1020.12 1020.08 1020.04 1020.00 1019.92 1019.88 1019.84 1019.72 1019.64 1019.52 1019.40 1019.28 1019.12 1019.00 1018.84 1018.64 1018.44 1018.28 1018.08 1017.84 1017.68 1017.56 1017.40 1017.28 1017.12 1017.00 1016.84 1016.68 1016.56 1016.44 1016.36 1016.24 1016.16 1016.12 1016.12 1016.12 1016.12 1016.12 1016.12 1016.08 1016.00 1015.96 1015.96 1015.88 1015.76 1015.64 1015.48 1015.28 1015.12 1014.96 1014.80 1014.64 1014.44 1014.28 1014.08 1013.88 1013.68 1013.48 1013.28 1013.12 1012.92
1020.20 1020.20 1020.16 1020.16 1020.12 1020.12 1020.12 1020.12 1020.12 1020.08 1020.00 1019.96 1019.88 1019.84 1019.72 1019.68 1019.56 1019.40 1019.28 1019.12 1019.00 1018.84 1018.68 1018.44 1018.28 1018.08 1017.92 1017.72 1017.56 1017.40 1017.28 1017.12 1016.96 1016.84 1016.68 1016.56 1016.44 1016.32 1016.24 1016.20 1016.12 1016.08 1016.04 1016.04 1016.04 1016.00 1015.96 1015.92 1015.84 1015.80 1015.72 1015.72 1015.64 1015.52 1015.36 1015.16 1015.00 1014.84 1014.64 1014.44 1014.28 1014.12 1013.92 1013.76 1013.56 1013.40 1013.20 1013.00 1012.80
1020.24 1020.20 1020.20 1020.20 1020.16 1020.16 1020.12 1020.12 1020.12 1020.08 1020.00 1019.96 1019.84 1019.80 1019.68 1019.60 1019.48 1019.36 1019.20 1019.04 1018.84 1018.68 1018.56 1018.32 1018.16 1017.96 1017.80 1017.64 1017.44 1017.28 1017.12 1016.96 1016.80 1016.68 1016.56 1016.40 1016.32 1016.28 1016.16 1016.12 1016.00 1015.96 1015.96 1015.96 1015.92 1015.88 1015.84 1015.76 1015.68 1015.64 1015.56 1015.52 1015.48 1015.36 1015.20 1015.00 1014.84 1014.64 1014.40 1014.24 1014.08 1013.92 1013.76 1013.56 1013.40 1013.20 1013.04 1012.84 1012.64
1020.24 1020.24 1020.20 1020.20 1020.16 1020.16 1020.12 1020.12 1020.08 1020.04 1019.96 1019.88 1019.84 1019.72 1019.64 1019.52 1019.40 1019.24 1019.08 1018.88 1018.72 1018.56 1018.36 1018.16 1018.00 1017.84 1017.68 1017.48 1017.32 1017.16 1017.00 1016.84 1016.68 1016.56 1016.48 1016.40 1016.28 1016.16 1016.08 1015.96 1015.92 1015.84 1015.84 1015.80 1015.76 1015.68 1015.68 1015.56 1015.52 1015.44 1015.40 1015.32 1015.28 1015.12 1015.00 1014.84 1014.64 1014.44 1014.28 1014.04 1013.88 1013.72 1013.56 1013.36 1013.20 1013.00 1012.80 1012.60 1012.40
1020.28 1020.24 1020.20 1020.20 1020.16 1020.12 1020.12 1020.08 1020.04 1020.00 1019.92 1019.84 1019.76 1019.68 1019.56 1019.40 1019.28 1019.12 1018.96 1018.76 1018.56 1018.40 1018.20 1018.00 1017.84 1017.68 1017.56 1017.40 1017.24 1017.08 1016.92 1016.76 1016.68 1016.56 1016.44 1016.36 1016.24 1016.08 1015.96 1015.84 1015.84 1015.76 1015.68 1015.64 1015.56 1015.56 1015.48 1015.40 1015.32 1015.24 1015.16 1015.12 1015.04 1014.92 1014.76 1014.60 1014.40 1014.24 1014.00 1013.84 1013.64 1013.52 1013.36 1013.16 1012.92 1012.72 1012.56 1012.40 1012.20
1020.28 1020.28 1020.24 1020.24 1020.16 1020.12 1020.12 1020.04 1020.00 1019.96 1019.84 1019.76 1019.68 1019.60 1019.48 1019.32 1019.16 1019.00 1018.84 1018.68 1018.44 1018.28 1018.12 1017.96 1017.80 1017.64 1017.48 1017.32 1017.12 1017.00 1016.84 1016.72 1016.64 1016.52 1016.40 1016.28 1016.16 1016.00 1015.84 1015.76 1015.68 1015.64 1015.56 1015.48 1015.40 1015.36 1015.28 1015.20 1015.08 1015.00 1014.96 1014.88 1014.80 1014.68 1014.56 1014.40 1014.20 1013.96 1013.76 1013.56 1013.40 1013.28 1013.12 1012.92 1012.72 1012.48 1012.28 1012.08 1011.92
1020.32 1020.28 1020.24 1020.24 1020.16 1020.12 1020.08 1020.00 1019.96 1019.88 1019.80 1019.68 1019.60 1019.52 1019.40 1019.24 1019.04 1018.84 1018.68 1018.56 1018.36 1018.20 1018.08 1017.92 1017.76 1017.60 1017.44 1017.28 1017.12 1016.96 1016.80 1016.68 1016.56 1016.44 1016.32 1016.24 1016.12 1015.96 1015.80 1015.68 1015.56 1015.48 1015.40 1015.28 1015.20 1015.12 1015.00 1014.96 1014.84 1014.76 1014.68 1014.64 1014.56 1014.44 1014.32 1014.12 1013.96 1013.76 1013.56 1013.32 1013.16 1013.00 1012.84 1012.68 1012.44 1012.24 1012.00 1011.84 1011.68
1020.32 1020.28 1020.24 1020.24 1020.16 1020.12 1020.04 1019.96 1019.88 1019.84 1019.72 1019.64 1019.52 1019.40 1019.28 1019.12 1018.96 1018.76 1018.56 1018.40 1018.28 1018.12 1018.00 1017.84 1017.68 1017.52 1017.36 1017.20 1017.04 1016.88 1016.76 1016.60 1016.48 1016.40 1016.32 1016.20 1016.08 1015.92 1015.76 1015.60 1015.44 1015.28 1015.16 1015.08 1015.00 1014.88 1014.80 1014.72 1014.64 1014.56 1014.52 1014.44 1014.36 1014.24 1014.08 1013.88 1013.68 1013.52 1013.28 1013.12 1012.92 1012.76 1012.60 1012.40 1012.20 1011.96 1011.76 1011.60 1011.44
1020.36 1020.32 1020.28 1020.24 1020.16 1020.08 1020.00 1019.92 1019.84 1019.72 1019.64 1019.56 1019.40 1019.28 1019.16 1019.00 1018.84 1018.68 1018.52 1018.36 1018.20 1018.08 1017.92 1017.76 1017.60 1017.40 1017.28 1017.08 1016.96 1016.84 1016.72 1016.60 1016.48 1016.36 1016.28 1016.12 1016.00 1015.84 1015.68 1015.48 1015.28 1015.12 1015.00 1014.92 1014.84 1014.72 1014.60 1014.52 1014.44 1014.40 1014.32 1014.28 1014.12 1014.00 1013.84 1013.68 1013.52 1013.28 1013.12 1012.92 1012.72 1012.56 1012.36 1012.16 1011.96 1011.80 1011.60 1011.44 1011.28
1020.40 1020.36 1020.28 1020.24 1020.12 1020.04 1019.96 1019.88 1019.76 1019.68 1019.56 1019.48 1019.36 1019.20 1019.04 1018.88 1018.72 1018.56 1018.40 1018.28 1018.12 1017.96 1017.84 1017.68 1017.52 1017.36 1017.16 1017.00 1016.92 1016.80 1016.68 1016.60 1016.44 1016.32 1016.16 1016.04 1015.92 1015.76 1015.56 1015.32 1015.16 1015.00 1014.92 1014.80 1014.68 1014.56 1014.44 1014.36 1014.28 1014.20 1014.12 1014.04 1013.92 1013.80 1013.64 1013.52 1013.32 1013.12 1012.92 1012.72 1012.56 1012.36 1012.16 1011.96 1011.84 1011.68 1011.52 1011.32 1011.20
1020.40 1020.40 1020.32 1020.24 1020.12 1020.00 1019.92 1019.84 1019.68 1019.60 1019.48 1019.36 1019.28 1019.12 1018.96 1018.80 1018.64 1018.52 1018.40 1018.28 1018.12 1017.92 1017.72 1017.56 1017.40 1017.28 1017.12 1016.96 1016.84 1016.68 1016.60 1016.52 1016.40 1016.24 1016.08 1015.92 1015.80 1015.64 1015.44 1015.16 1015.00 1014.88 1014.80 1014.64 1014.48 1014.36 1014.28 1014.16 1014.12 1014.04 1013.96 1013.88 1013.76 1013.64 1013.48 1013.32 1013.12 1013.00 1012.80 1012.60 1012.40 1012.24 1012.04 1011.92 1011.72 1011.56 1011.36 1011.20 1011.08
1020.44 1020.40 1020.32 1020.24 1020.08 1019.96 1019.84 1019.72 1019.64 1019.52 1019.40 1019.24 1019.12 1019.00 1018.84 1018.72 1018.60 1018.48 1018.36 1018.24 1018.08 1017.88 1017.68 1017.48 1017.32 1017.20 1017.04 1016.92 1016.76 1016.60 1016.44 1016.36 1016.28 1016.12 1015.96 1015.80 1015.64 1015.48 1015.28 1015.08 1014.84 1014.68 1014.56 1014.44 1014.28 1014.16 1014.08 1013.96 1013.92 1013.84 1013.80 1013.72 1013.60 1013.48 1013.32 1013.20 1013.00 1012.84 1012.68 1012.52 1012.28 1012.12 1011.96 1011.80 1011.64 1011.44 1011.28 1011.08 1010.96
1020.44 1020.40 1020.28 1020.20 1020.04 1019.88 1019.76 1019.64 1019.56 1019.40 1019.28 1019.16 1019.04 1018.92 1018.84 1018.68 1018.56 1018.44 1018.28 1018.12 1017.96 1017.76 1017.60 1017.44 1017.28 1017.12 1017.00 1016.84 1016.68 1016.52 1016.32 1016.20 1016.08 1015.96 1015.84 1015.68 1015.52 1015.32 1015.12 1015.00 1014.72 1014.56 1014.36 1014.24 1014.12 1014.00 1013.92 1013.84 1013.76 1013.68 1013.64 1013.56 1013.48 1013.36 1013.24 1013.12 1012.96 1012.76 1012.60 1012.44 1012.24 1012.04 1011.84 1011.68 1011.56 1011.40 1011.24 1011.00 1010.88
1020.44 1020.32 1020.24 1020.12 1019.96 1019.84 1019.68 1019.56 1019.40 1019.28 1019.20 1019.12 1019.00 1018.92 1018.80 1018.64 1018.48 1018.32 1018.16 1017.96 1017.84 1017.68 1017.56 1017.40 1017.20 1017.04 1016.92 1016.80 1016.64 1016.44 1016.24 1016.08 1015.96 1015.84 1015.68 1015.56 1015.36 1015.20 1015.00 1014.84 1014.64 1014.40 1014.28 1014.12 1014.04 1013.96 1013.84 1013.72 1013.68 1013.60 1013.52 1013.48 1013.40 1013.28 1013.16 1013.04 1012.88 1012.68 1012.52 1012.36 1012.20 1012.00 1011.84 1011.60 1011.48 1011.32 1011.20 1011.00 1010.84
Thickness
5455 5455 5455 5454 5453 5454 5453 5453 5453 5453 5452 5453 5453 5453 5453 5453 5453 5453 5454 5454 5454 5454 5455 5455 5455 5455 5455 5455 5455 5455 5455 5455 5455 5455 5456 5457 5457 5458 5459 5459 5460 5461 5462 5464 5464 5466 5468 5469 5470 5472 5474 5476 5478 5480 5482 5483 5485 5487 5488 5491 5493 5495 5497 5500 5502 5504 5507 5509 5511
5453 5453 5452 5452 5451 5451 5451 5451 5450 5450 5449 5449 5450 5450 5450 5450 5450 5450 5451 5451 5451 5451 5451 5451 5451 5451 5452 5452 5452 5452 5452 5452 5452 5453 5453 5454 5454 5455 5455 5456 5457 5458 5459 5460 5461 5463 5464 5466 5467 5469 5471 5473 5475 5477 5478 5479 5480 5481 5484 5485 5488 5490 5493 5495 5498 5499 5501 5503 5506
5450 5450 5450 5450 5449 5449 5449 5448 5448 5447 5447 5447 5447 5447 5446 5447 5447 5447 5448 5448 5448 5448 5448 5448 5448 5448 5448 5448 5448 5448 5448 5449 5449 5450 5451 5451 5452 5452 5452 5453 5454 5455 5456 5457 5458 5459 5461 5462 5464 5466 5468 5470 5472 5473 5474 5475 5476 5477 5479 5481 5483 5485 5488 5491 5494 5495 5497 5499 5501
5448 5448 5447 5447 5446 5446 5445 5445 5444 5444 5444 5444 5444 5444 5445 5444 5445 5445 5445 5445 5445 5446 5446 5446 5446 5446 5446 5446 5446 5446 5446 5447 5447 5447 5447 5448 5448 5449 5449 5450 5450 5452 5453 5454 5455 5456 5457 5459 5460 5463 5465 5467 5468 5470 5471 5472 5473 5474 5475 5477 5479 5481 5483 5486 5489 5491 5493 5496 5498
5445 5444 5444 5443 5443 5442 5442 5442 5442 5441 5441 5442 5442 5442 5443 5443 5443 5443 5443 5443 5443 5443 5444 5444 5444 5443 5444 5444 5444 5445 5445 5444 5445 5444 5444 5445 5445 5445 5446 5447 5447 5448 5449 5450 5451 5452 5453 5455 5456 5458 5460 5463 5464 5466 5468 5469 5470 5471 5472 5474 5475 5476 5478 5480 5483 5486 5489 5492 5494
5443 5442 5441 5441 5440 5440 5439 5440 5439 5439 5439 5440 5440 5441 5442 5441 5441 5441 5441 5441 5441 5441 5441 5442 5442 5442 5442 5442 5442 5442 5442 5442 5442 5442 5442 5442 5442 5443 5443 5443 5444 5444 5445 5446 5448 5449 5450 5451 5453 5455 5456 5458 5460 5462 5463 5464 5466 5467 5469 5470 5471 5472 5474 5475 5478 5480 5483 5486 5490
5439 5439 5439 5438 5438 5437 5437 5437 5437 5437 5438 5439 5439 5439 5440 5439 5439 5439 5439 5440 5439 5440 5440 5440 5440 5439 5439 5439 5440 5439 5439 5439 5439 5439 5440 5440 5440 5440 5440 5440 5441 5441 5442 5443 5444 5446 5446 5448 5449 5451 5453 5454 5456 5457 5458 5459 5460 5462 5464 5466 5467 5469 5470 5472 5473 5475 5478 5482 5485
5436 5436 5436 5436 5436 5436 5436 5436 5436 5436 5436 5437 5437 5437 5437 5438 5437 5437 5438 5437 5438 5438 5438 5437 5437 5437 5436 5436 5436 5436 5436 5436 5436 5437 5436 5437 5437 5438 5438 5438 5438 5439 5439 5440 5441 5442 5443 5444 5446 5448 5449 5451 5452 5453 5455 5455 5456 5458 5460 5461 5463 5465 5466 5468 5469 5471 5474 5477 5480
5434 5434 5434 5434 5434 5434 5434 5433 5433 5434 5434 5435 5435 5435 5435 5435 5435 5435 5435 5436 5436 5435 5435 5435 5434 5434 5434 5433 5433 5434 5434 5434 5434 5434 5435 5434 5435 5434 5435 5435 5436 5436 5437 5437 5438 5439 5440 5441 5443 5444 5446 5448 5449 5451 5451 5452 5453 5454 5456 5457 5458 5459 5461 5462 5464 5466 5469 5471 5475
5432 5432 5431 5431 5431 5431 5431 5431 5431 5432 5432 5432 5432 5432 5432 5432 5433 5433 5433 5433 5432 5433 5432 5432 5432 5431 5431 5431 5431 5431 5431 5431 5431 5432 5431 5432 5432 5432 5432 5433 5433 5434 5434 5435 5436 5436 5437 5439 5440 5442 5443 5444 5445 5446 5448 5448 5449 5451 5452 5453 5454 5455 5457 5458 5459 5461 5463 5466 5469
5430 5430 5429 5429 5429 5429 5429 5429 5429 5429 5429 5430 5429 5429 5429 5430 5430 5430 5430 5430 5430 5430 5429 5430 5429 5429 5429 5429 5429 5429 5429 5429 5429 5429 5429 5429 5429 5430 5430 5430 5431 5431 5432 5432 5433 5434 5435 5436 5437 5439 5440 5441 5442 5443 5444 5445 5446 5447 5449 5450 5450 5452 5454 5455 5456 5457 5460 5462 5464
5427 5427 5427 5426 5426 5426 5427 5427 5427 5426 5427 5427 5427 5426 5427 5427 5427 5427 5427 5427 5427 5427 5427 5427 5426 5426 5426 5426 5426 5426 5426 5427 5426 5426 5427 5427 5427 5427 5427 5428 5428 5429 5429 5430 5430 5431 5433 5434 5435 5436 5437 5438 5439 5440 5441 5442 5443 5445 5446 5447 5448 5448 5449 5451 5452 5454 5455 5458 5461
5425 5425 5425 5424 5424 5424 5424 5425 5424 5424 5424 5424 5424 5425 5424 5424 5424 5425 5424 5425 5424 5424 5424 5424 5424 5423 5424 5424 5424 5424 5424 5424 5424 5424 5424 5425 5425 5425 5425 5426 5427 5426 5427 5428 5428 5429 5430 5432 5433 5434 5435 5436 5436 5437 5438 5439 5440 5442 5443 5444 5445 5445 5447 5448 5449 5450 5452 5454 5457
5423 5423 5422 5422 5422 5422 5422 5422 5422 5422 5422 5422 5422 5422 5422 5422 5421 5422 5421 5422 5421 5421 5421 5421 5421 5421 5421 5421 5421 5422 5421 5422 5422 5423 5422 5423 5423 5423 5424 5424 5424 5425 5425 5426 5426 5427 5428 5429 5430 5431 5432 5433 5434 5434 5435 5436 5437 5437 5439 5440 5441 5442 5443 5445 5446 5447 5449 5451 5454
5421 5421 5420 5420 5420 5420 5420 5420 5420 5420 5419 5420 5420 5420 5419 5419 5419 5419 5419 5419 5419 5419 5418 5419 5419 5419 5419 5419 5420 5420 5419 5420 5420 5420 5420 5421 5421 5421 5421 5422 5423 5423 5423 5424 5424 5425 5426 5427 5428 5429 5430 5431 5431 5431 5432 5432 5433 5434 5435 5436 5437 5439 5440 5442 5443 5444 5446 5448 5451
5419 5418 5418 5417 5417 5418 5418 5418 5417 5417 5417 5417 5417 5417 5416 5416 5416 5416 5416 5416 5416 5416 5416 5416 5416 5416 5417 5417 5417 5417 5418 5418 5419 5418 5419 5419 5419 5420 5419 5420 5421 5421 5422 5422 5422 5423 5423 5424 5425 5426 5427 5428 5429 5430 5430 5430 5430 5432 5432 5433 5434 5436 5437 5439 5440 5442 5444 5446 5447
5417 5416 5415 5415 5415 5415 5415 5415 5414 5414 5415 5414 5415 5414 5414 5414 5413 5413 5413 5413 5413 5413 5414 5414 5414 5414 5414 5415 5415 5415 5416 5416 5416 5417 5417 5418 5418 5418 5418 5418 5419 5420 5420 5420 5420 5421 5422 5423 5423 5424 5424 5426 5427 5428 5428 5429 5429 5429 5430 5431 5432 5433 5435 5436 5438 5440 5441 5443 5445
5414 5414 5413 5413 5412 5412 5412 5412 5412 5411 5412 5412 5411 5411 5411 5411 5410 5410 5410 5411 5411 5411 5412 5411 5411 5412 5412 5412 5413 5413 5414 5415 5415 5415 5415 5416 5416 5416 5416 5416 5417 5417 5417 5418 5419 5419 5420 5421 5421 5422 5423 5424 5425 5425 5426 5426 5427 5427 5428 5428 5430 5431 5432 5434 5435 5436 5438 5440 5441
5411 5411 5410 5410 5409 5409 5409 5409 5409 5409 5409 5409 5408 5408 5408 5408 5408 5408 5408 5408 5408 5409 5409 5409 5410 5410 5410 5411 5411 5411 5411 5412 5413 5414 5414 5414 5414 5415 5415 5415 5415 5415 5416 5417 5418 5418 5418 5419 5419 5420 5421 5422 5423 5423 5424 5425 5425 5425 5426 5426 5428 5429 5430 5431 5433 5434 5435 5436 5438
5408 5408 5408 5407 5406 5406 5406 5406 5406 5406 5406 5406 5405 5405 5405 5405 5405 5406 5406 5406 5406 5406 5407 5407 5407 5408 5408 5408 5409 5409 5410 5411 5411 5412 5412 5413 5412 5413 5413 5414 5414 5414 5414 5415 5416 5416 5417 5417 5418 5418 5419 5420 5420 5421 5422 5423 5423 5424 5424 5424 5425 5426 5427 5428 5429 5431 5432 5433 5435
5405 5405 5404 5404 5403 5403 5403 5403 5403 5403 5403 5403 5403 5402 5402 5403 5403 5403 5403 5403 5404 5404 5404 5404 5405 5405 5406 5406 5407 5408 5408 5409 5409 5410 5410 5411 5411 5412 5412 5412 5412 5413 5413 5413 5414 5414 5415 5415 5416 5416 5417 5418 5419 5420 5420 5421 5421 5421 5421 5421 5422 5422 5423 5423 5425 5426 5428 5429 5430
5402 5401 5401 5400 5400 5400 5400 5400 5400 5400 5400 5400 5399 5400 5400 5400 5401 5401 5401 5401 5401 5401 5402 5402 5403 5403 5405 5404 5406 5406 5407 5407 5408 5408 5409 5409 5409 5410 5410 5411 5411 5411 5411 5411 5412 5413 5413 5414 5414 5415 5415 5416 5417 5417 5417 5418 5418 5418 5418 5418 5419 5419 5420 5421 5422 5422 5424 5425 5427
5399 5399 5398 5398 5398 5398 5398 5397 5397 5397 5397 5397 5397 5397 5397 5398 5398 5398 5398 5398 5399 5399 5400 5400 5400 5402 5402 5403 5404 5405 5405 5406 5407 5407 5407 5408 5409 5409 5410 5410 5410 5409 5410 5410 5411 5411 5412 5412 5412 5413 5413 5414 5414 5414 5414 5415 5414 5415 5415 5416 5416 5417 5418 5419 5419 5420 5421 5423 5424
5395 5395 5395 5395 5395 5395 5395 5395 5394 5395 5395 5395 5395 5395 5395 5395 5396 5395 5396 5396 5396 5397 5397 5398 5399 5400 5400 5401 5402 5403 5405 5405 5406 5407 5407 5407 5408 5408 5409 5408 5409 5409 5409 5410 5409 5410 5410 5410 5410 5410 5411 5411 5411 5411 5411 5412 5412 5413 5413 5414 5415 5415 5416 5417 5417 5418 5419 5420 5422
5393 5392 5392 5392 5392 5392 5392 5392 5392 5392 5392 5392 5392 5392 5393 5393 5393 5394 5393 5394 5395 5395 5395 5396 5397 5398 5399 5400 5401 5402 5403 5404 5405 5405 5406 5407 5407 5407 5407 5408 5408 5408 5408 5409 5409 5408 5409 5408 5408 5409 5408 5409 5409 5409 5410 5410 5411 5410 5411 5412 5413 5414 5414 5415 5416 5416 5418 5418 5420
5390 5390 5390 5389 5389 5389 5389 5390 5390 5389 5389 5389 5389 5390 5390 5390 5390 5391 5391 5392 5392 5393 5394 5395 5395 5397 5398 5399 5400 5401 5402 5403 5404 5405 5406 5406 5406 5407 5407 5407 5407 5407 5408 5408 5407 5407 5407 5406 5406 5406 5406 5407 5407 5408 5409 5409 5409 5409 5409 5411 5411 5412 5413 5414 5415 5416 5416 5417 5419
5387 5387 5387 5387 5387 5387 5387 5387 5386 5387 5387 5387 5387 5387 5388 5388 5388 5389 5389 5390 5391 5392 5393 5393 5395 5396 5397 5398 5399 5400 5401 5402 5403 5404 5404 5405 5405 5406 5406 5406 5406 5407 5406 5406 5405 5405 5405 5404 5404 5404 5404 5404 5405 5406 5407 5408 5408 5408 5409 5409 5410 5411 5412 5413 5414 5415 5415 5416 5417
5384 5384 5384 5384 5385 5384 5384 5384 5384 5384 5384 5384 5384 5385 5385 5385 5386 5387 5388 5389 5389 5390 5391 5392 5394 5395 5395 5397 5398 5399 5400 5400 5401 5401 5403 5403 5404 5404 5405 5405 5405 5404 5404 5403 5403 5403 5402 5403 5402 5403 5403 5402 5403 5404 5405 5406 5406 5407 5407 5408 5409 5409 5410 5411 5412 5413 5414 5415 5416
5382 5381 5381 5382 5382 5381 5381 5381 5381 5382 5381 5382 5382 5382 5383 5383 5384 5385 5386 5387 5387 5389 5390 5391 5392 5393 5394 5395 5396 5397 5398 5399 5399 5400 5401 5402 5402 5403 5403 5402 5402 5402 5401 5401 5400 5401 5401 5400 5401 5401 5401 5401 5401 5402 5403 5404 5405 5405 5406 5407 5408 5408 5409 5410 5411 5411 5412 5413 5414
5379 5379 5379 5379 5379 5379 5379 5378 5378 5379 5379 5379 5379 5380 5381 5381 5382 5383 5384 5385 5386 5387 5388 5389 5390 5391 5392 5393 5394 5395 5396 5397 5398 5398 5399 5400 5400 5400 5400 5400 5400 5400 5399 5398 5399 5398 5398 5399 5399 5399 5399 5399 5399 5400 5401 5402 5403 5404 5405 5406 5407 5407 5408 5409 5409 5410 5410 5411 5413
5376 5376 5376 5376 5376 5376 5376 5376 5376 5376 5376 5377 5377 5378 5378 5379 5380 5381 5382 5383 5383 5385 5386 5387 5388 5389 5390 5391 5392 5393 5394 5395 5396 5396 5396 5397 5397 5397 5397 5397 5397 5397 5396 5396 5396 5396 5396 5397 5397 5397 5397 5398 5398 5399 5400 5401 5401 5403 5403 5405 5406 5406 5407 5407 5408 5409 5410 5411 5412
5373 5373 5373 5374 5374 5374 5373 5374 5374 5374 5374 5375 5375 5376 5377 5377 5378 5379 5380 5381 5382 5383 5384 5385 5386 5387 5388 5389 5390 5391 5391 5392 5393 5393 5394 5394 5394 5394 5395 5395 5395 5395 5395 5394 5394 5394 5394 5395 5395 5395 5396 5396 5396 5397 5398 5399 5400 5402 5402 5404 5404 5405 5406 5407 5408 5409 5410 5410 5411
5370 5371 5371 5371 5371 5371 5371 5371 5371 5372 5372 5373 5373 5374 5374 5375 5376 5377 5378 5379 5380 5381 5382 5383 5384 5385 5386 5387 5388 5389 5389 5389 5390 5390 5391 5391 5392 5392 5393 5393 5393 5393 5392 5392 5392 5392 5393 5393 5393 5394 5394 5395 5394 5395 5397 5398 5399 5400 5402 5403 5403 5405 5405 5406 5407 5408 5409 5410 5411
5368 5368 5368 5368 5368 5369 5369 5369 5369 5369 5370 5370 5371 5372 5372 5374 5374 5375 5376 5377 5378 5379 5379 5380 5381 5382 5383 5384 5385 5386 5386 5387 5387 5387 5388 5388 5389 5389 5390 5391 5390 5391 5391 5391 5391 5391 5391 5391 5392 5392 5393 5393 5393 5394 5395 5397 5398 5399 5400 5401 5403 5403 5404 5405 5406 5408 5409 5410 5410
5365 5366 5366 5365 5366 5366 5366 5367 5367 5367 5368 5369 5369 5369 5370 5371 5372 5373 5374 5375 5376 5376 5377 5378 5379 5379 5380 5381 5382 5383 5383 5384 5385 5384 5384 5385 5386 5386 5387 5388 5389 5389 5389 5390 5389 5390 5390 5390 5390 5391 5391 5391 5392 5393 5394 5395 5397 5398 5400 5401 5401 5403 5403 5404 5405 5407 5408 5409 5410
5362 5363 5363 5363 5364 5364 5364 5364 5365 5365 5366 5367 5367 5367 5369 5369 5370 5371 5372 5372 5373 5374 5374 5375 5376 5377 5378 5379 5380 5380 5380 5381 5381 5382 5382 5382 5383 5384 5385 5386 5387 5387 5387 5387 5388 5388 5388 5388 5389 5389 5389 5389 5390 5391 5392 5393 5395 5396 5398 5399 5400 5401 5402 5404 5405 5406 5407 5407 5408
5360 5359 5360 5361 5361 5361 5362 5362 5363 5363 5363 5364 5365 5365 5366 5367 5368 5368 5369 5370 5371 5372 5372 5373 5374 5375 5376 5376 5376 5377 5377 5377 5378 5378 5379 5380 5380 5381 5383 5384 5385 5385 5385 5385 5385 5386 5386 5386 5387 5387 5387 5387 5388 5389 5391 5392 5393 5395 5396 5397 5399 5400 5401 5401 5403 5404 5404 5405 5406
5356 5357 5358 5358 5359 5359 5359 5360 5360 5361 5362 5362 5363 5363 5364 5365 5365 5366 5366 5367 5368 5369 5370 5371 5372 5372 5373 5373 5374 5374 5374 5375 5375 5376 5376 5378 5378 5378 5380 5381 5382 5382 5382 5383 5384 5384 5384 5385 5384 5385 5385 5385 5386 5387 5389 5390 5391 5393 5394 5396 5397 5397 5399 5399 5400 5402 5403 5403 5404
5354 5354 5355 5356 5356 5356 5357 5358 5358 5358 5359 5360 5361 5361 5362 5362 5363 5363 5363 5364 5364 5366 5367 5368 5369 5370 5370 5370 5371 5371 5372 5372 5372 5373 5374 5375 5375 5376 5377 5378 5380 5380 5380 5381 5381 5382 5382 5383 5382 5382 5383 5382 5383 5384 5386 5387 5389 5390 5391 5393 5394 5395 5396 5397 5398 5400 5401 5401 5403
5352 5352 5352 5353 5354 5355 5355 5356 5356 5357 5357 5358 5358 5359 5359 5359 5360 5360 5361 5361 5362 5363 5364 5365 5366 5366 5367 5367 5368 5369 5370 5370 5370 5370 5371 5371 5373 5373 5374 5375 5377 5378 5378 5379 5379 5380 5380 5380 5380 5380 5380 5380 5380 5381 5383 5384 5385 5387 5388 5390 5391 5393 5394 5395 5395 5397 5398 5399 5400
5349 5350 5350 5350 5352 5352 5353 5354 5354 5355 5355 5355 5355 5356 5356 5356 5357 5358 5359 5359 5360 5361 5361 5362 5363 5364 5364 5364 5365 5366 5367 5368 5368 5368 5368 5369 5369 5370 5371 5372 5374 5374 5375 5376 5376 5376 5376 5377 5377 5377 5377 5377 5378 5378 5379 5380 5382 5383 5385 5387 5388 5389 5391 5392 5393 5394 5395 5396 5397